Hourly Data Report for September 30, 2015

All times are specified in Local Standard Time (LST). Add 1 hour to adjust for Daylight Saving Time where and when it is observed.

TORONTO INTL A
ONTARIO

43°40'36.000" N
79°37'50.000" W
173.40 m
6158731
71624
YYZ

Download Data

Hourly Data (September 2015)
Hourly Data Report for September 30, 2015
Temp Definition
°C
Dew Point Temp Definition
°C
Rel Hum Definition
%
Wind Dir Definition
10's deg

Wind Spd Definition
km/h
Visibility Definition
km
Stn Press Definition
kPa
Hmdx Definition


Wind Chill Definition


Weather Definition


TIME
00:00 Legend Double Dagger 14.5 10.8 78 3 21 24.1 99.54     LegendNANA
01:00 Legend Double Dagger 14.1 10.4 78 2 25 24.1 99.53     Cloudy
02:00 Legend Double Dagger 13.8 10.3 79 2 23 24.1 99.54     LegendNANA
03:00 Legend Double Dagger 13.4 9.7 78 2 23 24.1 99.53     LegendNANA
04:00 Legend Double Dagger 13.1 9.6 79 36 25 24.1 99.53     Cloudy
05:00 Legend Double Dagger 12.4 7.9 74 1 31 24.1 99.54     LegendNANA
06:00 Legend Double Dagger 11.6 7.7 77 36 28 24.1 99.62     LegendNANA
07:00 Legend Double Dagger 11.4 7.9 79 35 23 24.1 99.68     Mostly Cloudy
08:00 Legend Double Dagger 11.4 7.4 76 36 32 24.1 99.76     LegendNANA
09:00 Legend Double Dagger 12.8 6.9 67 1 30 24.1 99.82     LegendNANA
10:00 Legend Double Dagger 13.8 5.5 57 2 30 24.1 99.88     Mostly Cloudy
11:00 Legend Double Dagger 15.3 5.9 53 2 25 24.1 99.89     LegendNANA
12:00 Legend Double Dagger 15.8 6.1 52 3 26 24.1 99.91     LegendNANA
13:00 Legend Double Dagger 16.8 6.4 50 3 25 24.1 99.92     Mostly Cloudy
14:00 Legend Double Dagger 17.3 6.9 50 1 24 24.1 99.93     LegendNANA
15:00 Legend Double Dagger 16.9 5.3 46 2 25 24.1 99.96     LegendNANA
16:00 Legend Double Dagger 16.2 4.0 44 2 27 24.1 100.02     Mostly Cloudy
17:00 Legend Double Dagger 15.1 2.7 43 1 30 24.1 100.05     LegendNANA
18:00 Legend Double Dagger 13.8 0.9 41 3 27 24.1 100.11     LegendNANA
19:00 Legend Double Dagger 12.7 1.1 45 3 23 24.1 100.16     Mainly Clear
20:00 Legend Double Dagger 12.0 1.4 48 3 22 24.1 100.24     LegendNANA
21:00 Legend Double Dagger 11.0 1.6 52 3 24 24.1 100.31     LegendNANA
22:00 Legend Double Dagger 10.2 1.6 55 4 25 24.1 100.38     Mainly Clear
23:00 Legend Double Dagger 9.4 1.1 56 4 22 24.1 100.39     LegendNANA

Notes on Data Quality.

Legend

  • E = Estimated
  • M = Missing
  • NA = Not Available
  • ‡ = Partner data that is not subject to review by the National Climate Archives
Date modified: